When you browse on this site, cookies collect data to enhance your experience and personalize the content and advertising you see.
Visit our Privacy Policy to learn more. By continuing to use the site, you agree to this use of cookies and data.
  • In Latvia
  • List of Countries
  • For 7 days
  • Water Temperature
  • Weather Map
  • Weather Widgets
  • user-avatar
    Login

    Hourly Weather Antwerp

    Today, 4 June, Thursday

    Time Temperature Precipitation Wind Pressure Humidity
    00:00 +13°C° 0 mm 3 mps 750 mmHg 84%
    01:00 +13°C° 0 mm 3 mps 749 mmHg 80%
    02:00 +13°C° 0 mm 3 mps 749 mmHg 77%
    03:00 +13°C° 0 mm 4 mps 748 mmHg 74%
    04:00 +13°C° 0 mm 4 mps 748 mmHg 73%
    05:00 +14°C° 0 mm 4 mps 748 mmHg 72%
    06:00 +14°C° 0 mm 4 mps 748 mmHg 70%
    07:00 +14°C° 0 mm 5 mps 748 mmHg 68%
    08:00 +15°C° 0 mm 5 mps 747 mmHg 65%
    09:00 +16°C° 0 mm 5 mps 747 mmHg 63%
    10:00 +16°C° 0.1 mm 5 mps 747 mmHg 63%
    11:00 +16°C° 0.1 mm 6 mps 747 mmHg 63%
    12:00 +16°C° 0.1 mm 6 mps 747 mmHg 64%
    13:00 +15°C° 0.2 mm 5 mps 747 mmHg 66%
    14:00 +15°C° 0.2 mm 5 mps 747 mmHg 69%
    15:00 +14°C° 0.2 mm 5 mps 747 mmHg 72%
    16:00 +13°C° 0.3 mm 5 mps 748 mmHg 76%
    17:00 +12°C° 0.3 mm 4 mps 748 mmHg 80%
    18:00 +11°C° 0.3 mm 4 mps 748 mmHg 84%
    19:00 +11°C° 0.1 mm 4 mps 748 mmHg 85%
    20:00 +10°C° 0.1 mm 3 mps 748 mmHg 86%
    21:00 +10°C° 0.1 mm 3 mps 748 mmHg 87%
    22:00 +9°C° 0 mm 3 mps 748 mmHg 87%
    23:00 +8°C° 0 mm 3 mps 748 mmHg 88%

    Tomorrow, 5 June, Friday

    Time Temperature Precipitation Wind Pressure Humidity
    00:00 +8°C° 0 mm 3 mps 748 mmHg 88%
    01:00 +7°C° 0 mm 3 mps 748 mmHg 88%
    02:00 +7°C° 0 mm 3 mps 747 mmHg 88%
    03:00 +7°C° 0 mm 3 mps 747 mmHg 88%
    04:00 +7°C° 0.1 mm 4 mps 747 mmHg 88%
    05:00 +8°C° 0.1 mm 4 mps 746 mmHg 88%
    06:00 +9°C° 0.1 mm 5 mps 746 mmHg 88%
    07:00 +9°C° 1.3 mm 5 mps 745 mmHg 88%
    08:00 +10°C° 1.3 mm 6 mps 745 mmHg 88%
    09:00 +10°C° 1.3 mm 6 mps 744 mmHg 87%
    10:00 +11°C° 1.2 mm 7 mps 744 mmHg 79%
    11:00 +12°C° 1.2 mm 8 mps 744 mmHg 71%
    12:00 +13°C° 1.2 mm 9 mps 744 mmHg 63%
    13:00 +12°C° 0.5 mm 8 mps 744 mmHg 67%
    14:00 +12°C° 0.5 mm 7 mps 745 mmHg 71%
    15:00 +11°C° 0.5 mm 6 mps 745 mmHg 74%
    16:00 +12°C° 0.4 mm 5 mps 745 mmHg 75%
    17:00 +11°C° 0.4 mm 4 mps 745 mmHg 76%
    18:00 +11°C° 0.4 mm 3 mps 746 mmHg 77%
    19:00 +10°C° 0 mm 3 mps 746 mmHg 80%
    20:00 +9°C° 0 mm 3 mps 746 mmHg 82%
    21:00 +8°C° 0 mm 3 mps 747 mmHg 85%
    22:00 +7°C° 0 mm 4 mps 747 mmHg 84%
    23:00 +7°C° 0 mm 4 mps 747 mmHg 84%

    Day after tomorrow, 6 June, Saturday

    Time Temperature Precipitation Wind Pressure Humidity
    00:00 +7°C° 0 mm 4 mps 747 mmHg 83%
    01:00 +7°C° 0 mm 4 mps 747 mmHg 84%
    02:00 +7°C° 0 mm 4 mps 747 mmHg 84%
    03:00 +7°C° 0 mm 4 mps 747 mmHg 84%
    04:00 +7°C° 0 mm 5 mps 748 mmHg 80%
    05:00 +8°C° 0 mm 6 mps 748 mmHg 76%
    06:00 +9°C° 0 mm 7 mps 748 mmHg 71%
    07:00 +10°C° 0 mm 7 mps 748 mmHg 64%
    08:00 +12°C° 0 mm 8 mps 748 mmHg 56%
    09:00 +13°C° 0 mm 8 mps 748 mmHg 49%
    10:00 +13°C° 0 mm 9 mps 748 mmHg 48%
    11:00 +15°C° 0 mm 9 mps 748 mmHg 47%
    12:00 +15°C° 0 mm 9 mps 748 mmHg 46%
    13:00 +15°C° 0 mm 9 mps 748 mmHg 47%
    14:00 +14°C° 0 mm 10 mps 749 mmHg 48%
    15:00 +13°C° 0 mm 10 mps 749 mmHg 49%
    16:00 +13°C° 0 mm 9 mps 749 mmHg 52%
    17:00 +12°C° 0 mm 9 mps 749 mmHg 55%
    18:00 +11°C° 0 mm 9 mps 749 mmHg 57%
    19:00 +11°C° 0 mm 8 mps 749 mmHg 61%
    20:00 +11°C° 0 mm 8 mps 750 mmHg 64%
    21:00 +11°C° 0 mm 8 mps 750 mmHg 67%
    22:00 +10°C° 0 mm 8 mps 750 mmHg 70%
    23:00 +10°C° 0 mm 7 mps 750 mmHg 74%

    7 June, Sunday

    Time Temperature Precipitation Wind Pressure Humidity
    00:00 +10°C° 0 mm 7 mps 750 mmHg 77%
    01:00 +10°C° 0.1 mm 7 mps 750 mmHg 79%
    02:00 +9°C° 0.1 mm 7 mps 750 mmHg 82%
    03:00 +9°C° 0.1 mm 6 mps 751 mmHg 84%
    04:00 +10°C° 0.1 mm 6 mps 751 mmHg 83%
    05:00 +10°C° 0.1 mm 6 mps 751 mmHg 83%
    06:00 +10°C° 0.1 mm 6 mps 752 mmHg 82%
    07:00 +13°C° 0.2 mm 6 mps 752 mmHg 75%
    08:00 +14°C° 0.2 mm 6 mps 753 mmHg 69%
    09:00 +15°C° 0.2 mm 6 mps 754 mmHg 63%
    10:00 +16°C° 0.2 mm 6 mps 754 mmHg 58%
    11:00 +17°C° 0.2 mm 5 mps 754 mmHg 53%
    12:00 +19°C° 0.2 mm 5 mps 755 mmHg 48%
    13:00 +20°C° 0 mm 5 mps 755 mmHg 48%
    14:00 +20°C° 0 mm 4 mps 755 mmHg 48%
    15:00 +20°C° 0 mm 4 mps 755 mmHg 48%
    16:00 +19°C° 0 mm 4 mps 756 mmHg 52%
    17:00 +18°C° 0 mm 3 mps 756 mmHg 56%
    18:00 +18°C° 0 mm 3 mps 756 mmHg 59%
    19:00 +16°C° 0 mm 2 mps 757 mmHg 65%
    20:00 +15°C° 0 mm 2 mps 757 mmHg 70%
    21:00 +13°C° 0 mm 1 mps 758 mmHg 75%
    22:00 +13°C° 0 mm 2 mps 758 mmHg 78%
    23:00 +12°C° 0 mm 2 mps 758 mmHg 81%

    8 June, Monday

    Time Temperature Precipitation Wind Pressure Humidity
    00:00 +12°C° 0 mm 2 mps 758 mmHg 84%
    01:00 +10°C° 0 mm 2 mps 758 mmHg 85%
    02:00 +10°C° 0 mm 3 mps 758 mmHg 87%
    03:00 +10°C° 0 mm 3 mps 758 mmHg 88%
    04:00 +11°C° 0 mm 3 mps 758 mmHg 86%
    05:00 +12°C° 0 mm 3 mps 759 mmHg 85%
    06:00 +13°C° 0 mm 2 mps 759 mmHg 83%
    07:00 +14°C° 0.1 mm 3 mps 759 mmHg 77%
    08:00 +17°C° 0.1 mm 3 mps 759 mmHg 71%
    09:00 +18°C° 0.1 mm 3 mps 760 mmHg 66%
    10:00 +19°C° 0.5 mm 4 mps 760 mmHg 65%
    11:00 +19°C° 0.5 mm 4 mps 760 mmHg 64%
    12:00 +19°C° 0.5 mm 5 mps 760 mmHg 63%
    13:00 +19°C° 0.3 mm 5 mps 760 mmHg 63%
    14:00 +19°C° 0.3 mm 6 mps 760 mmHg 63%
    15:00 +19°C° 0.3 mm 6 mps 760 mmHg 62%
    16:00 +17°C° 0.1 mm 6 mps 761 mmHg 64%
    17:00 +16°C° 0.1 mm 6 mps 761 mmHg 66%
    18:00 +15°C° 0.1 mm 5 mps 761 mmHg 68%
    19:00 +13°C° 0 mm 5 mps 762 mmHg 71%
    20:00 +12°C° 0 mm 4 mps 762 mmHg 75%
    21:00 +11°C° 0 mm 4 mps 763 mmHg 78%
    22:00 +10°C° 0 mm 3 mps 763 mmHg 79%
    23:00 +10°C° 0 mm 3 mps 763 mmHg 80%

    9 June, Tuesday

    Time Temperature Precipitation Wind Pressure Humidity
    00:00 +10°C° 0 mm 2 mps 763 mmHg 81%
    01:00 +10°C° 0 mm 2 mps 763 mmHg 79%
    02:00 +10°C° 0 mm 2 mps 763 mmHg 78%
    03:00 +10°C° 0 mm 2 mps 763 mmHg 76%
    04:00 +12°C° 0 mm 2 mps 764 mmHg 76%
    05:00 +11°C° 0 mm 3 mps 764 mmHg 75%
    06:00 +11°C° 0 mm 3 mps 764 mmHg 74%
    07:00 +12°C° 0 mm 3 mps 764 mmHg 70%
    08:00 +13°C° 0 mm 3 mps 764 mmHg 65%
    09:00 +13°C° 0 mm 3 mps 764 mmHg 60%
    10:00 +14°C° 0 mm 3 mps 764 mmHg 58%
    11:00 +14°C° 0 mm 4 mps 765 mmHg 56%
    12:00 +15°C° 0 mm 4 mps 765 mmHg 54%
    13:00 +15°C° 0 mm 4 mps 764 mmHg 54%
    14:00 +15°C° 0 mm 4 mps 764 mmHg 54%
    15:00 +15°C° 0 mm 4 mps 764 mmHg 54%
    16:00 +14°C° 0 mm 4 mps 764 mmHg 55%
    17:00 +14°C° 0 mm 4 mps 764 mmHg 57%
    18:00 +13°C° 0 mm 4 mps 764 mmHg 59%
    19:00 +12°C° 0 mm 3 mps 765 mmHg 64%
    20:00 +11°C° 0 mm 3 mps 765 mmHg 68%
    21:00 +9°C° 0 mm 2 mps 765 mmHg 73%
    22:00 +9°C° 0 mm 2 mps 765 mmHg 74%
    23:00 +9°C° 0 mm 2 mps 764 mmHg 75%
    Show more